This is the latest recevied weather packets stored in our database for station/object K5OLV. If no packets are shown the sender has not sent any weather packets the latest 10 day(s).
| Time | Temp. | Humidity | Pressure | Rain* | Wind** | Luminosity | Snow |
|---|---|---|---|---|---|---|---|
| 1788421689 | 23.33° C | 88% | 1016.3 hPa | 0 mm | - | 0 W/m² | - |
| 1788421384 | 23.33° C | 89% | 1016.3 hPa | 0 mm | - | 0 W/m² | - |
| 1788421080 | 23.33° C | 90% | 1016.3 hPa | 0 mm | - | 0 W/m² | - |
| 1788420775 | 22.78° C | 91% | 1016.1 hPa | 0 mm | - | 0 W/m² | - |
| 1788420471 | 22.78° C | 91% | 1016.3 hPa | 0 mm | - | 0 W/m² | - |
| 1788420167 | 22.78° C | 90% | 1016.2 hPa | 0 mm | - | 0 W/m² | - |
| 1788419863 | 22.78° C | 90% | 1016.3 hPa | 0 mm | - | 0 W/m² | - |
| 1788419558 | 23.33° C | 90% | 1015.9 hPa | 0 mm | - | 0 W/m² | - |
| 1788419258 | 23.33° C | 90% | 1016.1 hPa | 0 mm | - | 0 W/m² | - |
| 1788418954 | 23.33° C | 90% | 1016.2 hPa | 0 mm | - | 0 W/m² | - |
| 1788418649 | 23.33° C | 90% | 1016.3 hPa | 0 mm | - | 0 W/m² | - |
| 1788418348 | 23.33° C | 90% | 1016.1 hPa | 0 mm | - | 0 W/m² | - |
| 1788418047 | 23.33° C | 90% | 1016.2 hPa | 0 mm | - | 0 W/m² | - |
| 1788417743 | 23.33° C | 89% | 1016.1 hPa | 0 mm | - | 0 W/m² | - |
| 1788417439 | 23.33° C | 89% | 1016.3 hPa | 0 mm | - | 0 W/m² | - |
| 1788417134 | 23.33° C | 89% | 1016.3 hPa | 0 mm | - | 0 W/m² | - |
| 1788416830 | 23.89° C | 88% | 1016.1 hPa | 0 mm | - | 0 W/m² | - |
| 1788416529 | 23.89° C | 88% | 1016.5 hPa | 0 mm | - | 0 W/m² | - |
| 1788416226 | 23.89° C | 87% | 1016.5 hPa | 0 mm | - | 0 W/m² | - |
| 1788415924 | 24.44° C | 86% | 1016.4 hPa | 0 mm | - | 0 W/m² | - |
| 1788415620 | 24.44° C | 85% | 1016.7 hPa | 0 mm | - | 0 W/m² | - |
| 1788415314 | 24.44° C | 85% | 1016.6 hPa | 0 mm | - | 0 W/m² | - |
| 1788415012 | 24.44° C | 84% | 1016.6 hPa | 0 mm | - | 0 W/m² | - |
| 1788414710 | 25° C | 84% | 1016.4 hPa | 0 mm | - | 0 W/m² | - |
| 1788414406 | 24.44° C | 84% | 1016.5 hPa | 0 mm | - | 0 W/m² | - |
* Rain latest hour (hover to see other rain measurements)
** Current wind speed in m/s (hover to see current wind gust speed)